Back to catalog

USA 482

AliveMilitaryVLEO
NORAD 62551·PAYLOAD·🇺🇸 United States

Launched Jan 10, 2025 from Vandenberg Space Force Base

Loading…

Next Passes (next 24 hours)

TLE

StaleSource: Mike McCants

Epoch: Aug 26, 2026, 02:23 UTC

1 62551U 25005V   26238.09973037 0.00000000  00000-0  00000-0 0    03
2 62551  70.0280 226.5670 0004000 195.8720 164.1280 14.96713478    04

Track USA 482 in real time with AllMySat

Download on the App Store